TimePST,TemperatureF,Dew PointF,Humidity,Sea Level PressureIn,VisibilityMPH,Wind Direction,Wind SpeedMPH,Gust SpeedMPH,PrecipitationIn,Events,Conditions,WindDirDegrees,DateUTC
12:15 AM,30.2,23.0,75,30.22,10.0,Calm,Calm,-,N/A,,Clear,0,2014-02-11 08:15:00
12:35 AM,28.4,21.2,74,30.22,10.0,SE,4.6,-,N/A,,Clear,130,2014-02-11 08:35:00
12:55 AM,30.2,21.2,69,30.22,10.0,SE,3.5,-,N/A,,Clear,130,2014-02-11 08:55:00
1:15 AM,28.4,21.2,74,30.22,10.0,Calm,Calm,-,N/A,,Clear,0,2014-02-11 09:15:00
1:35 AM,28.4,21.2,74,30.21,10.0,Calm,Calm,-,N/A,,Clear,0,2014-02-11 09:35:00
1:55 AM,28.4,21.2,74,30.21,10.0,Calm,Calm,-,N/A,,Clear,0,2014-02-11 09:55:00
2:15 AM,28.4,21.2,74,30.21,10.0,Calm,Calm,-,N/A,,Clear,0,2014-02-11 10:15:00
2:35 AM,26.6,21.2,80,30.21,10.0,Calm,Calm,-,N/A,,Clear,0,2014-02-11 10:35:00
2:55 AM,26.6,21.2,80,30.21,10.0,Calm,Calm,-,N/A,,Clear,0,2014-02-11 10:55:00
3:15 AM,26.6,21.2,80,30.21,10.0,Calm,Calm,-,N/A,,Clear,0,2014-02-11 11:15:00
3:35 AM,26.6,19.4,74,30.22,10.0,Calm,Calm,-,N/A,,Clear,0,2014-02-11 11:35:00
3:55 AM,26.6,19.4,74,30.22,10.0,Calm,Calm,-,N/A,,Clear,0,2014-02-11 11:55:00
4:15 AM,26.6,21.2,80,30.21,10.0,Calm,Calm,-,N/A,,Clear,0,2014-02-11 12:15:00
4:35 AM,26.6,19.4,74,30.20,10.0,Calm,Calm,-,N/A,,Clear,0,2014-02-11 12:35:00
4:55 AM,24.8,19.4,80,30.20,10.0,Calm,Calm,-,N/A,,Clear,0,2014-02-11 12:55:00
5:15 AM,24.8,19.4,80,30.21,10.0,Calm,Calm,-,N/A,,Clear,0,2014-02-11 13:15:00
5:35 AM,24.8,19.4,80,30.21,10.0,Calm,Calm,-,N/A,,Clear,0,2014-02-11 13:35:00
5:55 AM,23.0,19.4,86,30.21,10.0,Calm,Calm,-,N/A,,Clear,0,2014-02-11 13:55:00
6:15 AM,23.0,19.4,86,30.22,10.0,Calm,Calm,-,N/A,,Clear,0,2014-02-11 14:15:00
6:35 AM,23.0,19.4,86,30.22,10.0,Calm,Calm,-,N/A,,Clear,0,2014-02-11 14:35:00
6:55 AM,23.0,19.4,86,30.23,10.0,Calm,Calm,-,N/A,,Clear,0,2014-02-11 14:55:00
7:15 AM,23.0,19.4,86,30.23,10.0,Calm,Calm,-,N/A,,Clear,0,2014-02-11 15:15:00
7:35 AM,26.6,19.4,74,30.23,10.0,Calm,Calm,-,N/A,,Clear,0,2014-02-11 15:35:00
7:55 AM,28.4,21.2,74,30.24,10.0,Calm,Calm,-,N/A,,Clear,0,2014-02-11 15:55:00
8:15 AM,32.0,21.2,64,30.23,10.0,Calm,Calm,-,N/A,,Clear,0,2014-02-11 16:15:00
8:35 AM,33.8,21.2,60,30.24,10.0,Calm,Calm,-,N/A,,Clear,0,2014-02-11 16:35:00
8:55 AM,37.4,19.4,48,30.24,10.0,Calm,Calm,-,N/A,,Clear,0,2014-02-11 16:55:00
9:15 AM,42.8,17.6,36,30.24,10.0,Calm,Calm,-,N/A,,Clear,0,2014-02-11 17:15:00
9:35 AM,48.2,14.0,25,30.24,10.0,Calm,Calm,-,N/A,,Clear,0,2014-02-11 17:35:00
9:55 AM,50.0,8.6,19,30.24,10.0,Calm,Calm,-,N/A,,Clear,0,2014-02-11 17:55:00
10:15 AM,51.8,6.8,16,30.24,10.0,East,3.5,-,N/A,,Clear,80,2014-02-11 18:15:00
10:35 AM,51.8,14.0,22,30.24,10.0,East,8.1,-,N/A,,Clear,90,2014-02-11 18:35:00
10:55 AM,51.8,12.2,21,30.24,10.0,SE,6.9,-,N/A,,Clear,140,2014-02-11 18:55:00
11:15 AM,51.8,10.4,19,30.25,10.0,ESE,5.8,-,N/A,,Clear,120,2014-02-11 19:15:00
11:35 AM,53.6,8.6,16,30.24,10.0,ENE,10.4,-,N/A,,Clear,70,2014-02-11 19:35:00
11:55 AM,53.6,3.2,13,30.24,10.0,ENE,11.5,16.1,N/A,,Clear,70,2014-02-11 19:55:00
12:15 PM,51.8,-4.0,10,30.23,10.0,ENE,10.4,-,N/A,,Clear,70,2014-02-11 20:15:00
12:35 PM,51.8,3.2,14,30.23,10.0,ENE,5.8,-,N/A,,Clear,70,2014-02-11 20:35:00
12:55 PM,51.8,1.4,13,30.23,10.0,East,8.1,-,N/A,,Clear,80,2014-02-11 20:55:00
1:15 PM,53.6,-2.2,10,30.22,10.0,ENE,8.1,-,N/A,,Clear,70,2014-02-11 21:15:00
1:35 PM,53.6,1.4,12,30.22,10.0,ENE,10.4,-,N/A,,Clear,70,2014-02-11 21:35:00
1:55 PM,53.6,5.0,14,30.22,10.0,East,9.2,-,N/A,,Clear,80,2014-02-11 21:55:00
2:15 PM,53.6,3.2,13,30.21,10.0,ENE,11.5,-,N/A,,Clear,70,2014-02-11 22:15:00
2:35 PM,53.6,3.2,13,30.20,10.0,ENE,8.1,-,N/A,,Clear,60,2014-02-11 22:35:00
2:55 PM,53.6,-0.4,11,30.20,10.0,East,5.8,-,N/A,,Clear,80,2014-02-11 22:55:00
3:15 PM,53.6,8.6,16,30.20,10.0,East,8.1,-,N/A,,Clear,80,2014-02-11 23:15:00
3:35 PM,51.8,1.4,13,30.20,10.0,Calm,Calm,-,N/A,,Clear,0,2014-02-11 23:35:00
3:55 PM,51.8,-5.8,9,30.21,10.0,North,4.6,-,N/A,,Clear,350,2014-02-11 23:55:00
4:15 PM,51.8,-2.2,11,30.21,10.0,Calm,Calm,-,N/A,,Clear,0,2014-02-12 00:15:00
4:35 PM,50.0,12.2,22,30.22,10.0,East,3.5,-,N/A,,Clear,80,2014-02-12 00:35:00
4:55 PM,50.0,8.6,19,30.22,10.0,SE,3.5,-,N/A,,Clear,130,2014-02-12 00:55:00
5:15 PM,48.2,15.8,27,30.23,10.0,South,5.8,-,N/A,,Clear,180,2014-02-12 01:15:00
5:35 PM,46.4,17.6,32,30.23,10.0,Calm,Calm,-,N/A,,Clear,0,2014-02-12 01:35:00
5:55 PM,44.6,8.6,23,30.23,10.0,Calm,Calm,-,N/A,,Clear,0,2014-02-12 01:55:00
6:15 PM,41.0,12.2,31,30.25,7.0,Calm,Calm,-,N/A,,Clear,0,2014-02-12 02:15:00
6:35 PM,37.4,12.2,36,30.25,10.0,Calm,Calm,-,N/A,,Clear,0,2014-02-12 02:35:00
6:55 PM,35.6,14.0,41,30.26,10.0,Calm,Calm,-,N/A,,Clear,0,2014-02-12 02:55:00
7:15 PM,33.8,12.2,41,30.27,10.0,Calm,Calm,-,N/A,,Clear,0,2014-02-12 03:15:00
7:35 PM,33.8,12.2,41,30.27,10.0,Calm,Calm,-,N/A,,Clear,0,2014-02-12 03:35:00
7:55 PM,32.0,12.2,44,30.27,10.0,Calm,Calm,-,N/A,,Clear,0,2014-02-12 03:55:00
8:15 PM,32.0,12.2,44,30.28,10.0,Calm,Calm,-,N/A,,Clear,0,2014-02-12 04:15:00
8:35 PM,30.2,12.2,47,30.28,10.0,Calm,Calm,-,N/A,,Clear,0,2014-02-12 04:35:00
8:55 PM,30.2,12.2,47,30.29,10.0,Calm,Calm,-,N/A,,Clear,0,2014-02-12 04:55:00
9:15 PM,30.2,14.0,51,30.29,10.0,Calm,Calm,-,N/A,,Clear,0,2014-02-12 05:15:00
9:35 PM,30.2,14.0,51,30.28,10.0,Calm,Calm,-,N/A,,Clear,0,2014-02-12 05:35:00
9:55 PM,28.4,14.0,55,30.29,10.0,Calm,Calm,-,N/A,,Clear,0,2014-02-12 05:55:00
10:15 PM,28.4,14.0,55,30.30,10.0,Calm,Calm,-,N/A,,Clear,0,2014-02-12 06:15:00
10:35 PM,28.4,12.2,51,30.30,10.0,Calm,Calm,-,N/A,,Clear,0,2014-02-12 06:35:00
10:55 PM,28.4,12.2,51,30.31,10.0,Calm,Calm,-,N/A,,Clear,0,2014-02-12 06:55:00
11:15 PM,28.4,12.2,51,30.31,10.0,Calm,Calm,-,N/A,,Clear,0,2014-02-12 07:15:00
11:35 PM,28.4,12.2,51,30.31,10.0,Calm,Calm,-,N/A,,Clear,0,2014-02-12 07:35:00
11:55 PM,26.6,12.2,55,30.31,10.0,Calm,Calm,-,N/A,,Clear,0,2014-02-12 07:55:00